Погода в Миллерове

Россия / Ростовская область     47°49′36″N   39°15′00″E
темп.,
°C
ветер,
м/с
пор.,
м/с
влажн.,
%
обл.,
%
осадки,
мм/ч
давл.,
гПа
погр.,
м
18 апреля, вс
вс1800:00+7зюз22815 0.0 102113
03:00+6вюв008124 0.0 102010
06:00+6в2282100 0.0 102021
09:00+11в3462100 0.0 1019519
12:00+13юв435088 0.0 10181611
15:00+15юв214499 0.0 10171743
18:00+12ю6669100 0.0 1017371
21:00+8ююз238289 0.0 101857
19 апреля, пн
пн1900:00+7з118583 0.0 101710
03:00+7з1184100 0.0 101710
06:00+8сз117975 0.0 101710
09:00+12ю1161100 0.0 1017433
12:00+15юв224980 0.0 10151409
15:00+16ююв3246100 0.0 10141696
18:00+14ю3366100 0.0 1014491
21:00+11ююв227855 0.0 101418
20 апреля, вт
вт2000:00+10в348199 0.0 101372
03:00+10в41084100 0.1 1011421
06:00+10в61295100 1.7 1007531
09:00+12вюв71497100 8.5 1005474
12:00+13вюв101890100 5.2 1002731
15:00+15ююз7129074 5.8 1002763
18:00+13ююз8148218 0.0 1002851
21:00+10ююз9158281 0.1 10051057
21 апреля, ср
ср2100:00+9ююз101683100 0.1 10061076
03:00+9ююз91593100 0.2 1007881
06:00+9зюз81389100 0.3 10111274
09:00+10зюз7980100 0.4 1015839
12:00+14зюз795236 0.2 10161828
15:00+15юз79485 0.2 10172028
18:00+13ююз56659 0.0 1018804
21:00+8юз368012 0.1 1021131
22 апреля, чт
чт2200:00+8зюз118495 0.0 102213
03:00+8ю117821 0.0 102210
06:00+7в11845 0.0 102310
09:00+12св23595 0.0 1024691
12:00+15в224484 0.0 10241912
15:00+15вюв1145100 0.0 10231641
18:00+14всв2359100 0.0 1023145
21:00+12всв2361100 0.0 102444